{"data":{"norad_id":56064,"epoch":"2026-09-20T03:40:00.704352Z","epoch_age_seconds":48129,"freshness":"FRESH","line1":"1 56064U 23043U   26263.15278593  .00000127  00000+0  29891-3 0  9993","line2":"2 56064  87.9156 209.9128 0002225  81.5671 278.5712 13.16592737171464","mean_motion":13.16592737,"eccentricity":0.0002225,"inclination_deg":87.9156,"raan_deg":209.9128,"arg_perigee_deg":81.5671,"mean_anomaly_deg":278.5712,"bstar":0.00029891,"rev_number":17146,"period_min":109.37322981754,"perigee_km":1196.0768603431,"apogee_km":1199.4481356197,"semimajor_km":7575.8994979814,"source":"CELESTRAK","updated_at":"2026-09-20T09:00:44.790138Z"}}